Location: Berlin
(42.3812°N, 71.6370°W)
Time: 12:47:56
(UTC+00:00)

Cosmos 2237 Rocket - Pass Details

Date: 15 November 2025
Orbit: 835 x 847 km, 71.0° (Epoch: 06 December)

Event Time Altitude Azimuth Distance (km) Brightness Sun altitude
Exits shadow 10:25:04 16° 307° (NW) 2,051 3.7 -13.5°
Maximum altitude 10:25:34 16° 313° (NW) 2,041 3.7 -13.4°
Drops below altitude 10° 10:29:04 10° 352° (N) 2,464 4.4 -12.8°
Sets 10:32:30 0° 13° (NNE) 3,400 5.3 -12.2°
